Stündliche Wetter Abramovka

Heute, 24 Juni, Donnerstag

Zeit Temperatur Niederschläge Wind Luftdruck Luftfeuchtigkeit
00:00 +23°C° 0 mm 2 m/S 738 mmHg 76%
01:00 +21°C° 0 mm 2 m/S 738 mmHg 80%
02:00 +20°C° 0 mm 2 m/S 738 mmHg 82%
03:00 +19°C° 0 mm 2 m/S 738 mmHg 83%
04:00 +19°C° 0 mm 3 m/S 738 mmHg 84%
05:00 +20°C° 0 mm 3 m/S 739 mmHg 80%
06:00 +21°C° 0 mm 3 m/S 739 mmHg 76%
07:00 +22°C° 0 mm 4 m/S 739 mmHg 71%
08:00 +25°C° 0 mm 4 m/S 739 mmHg 66%
09:00 +26°C° 0 mm 4 m/S 739 mmHg 60%
10:00 +27°C° 0 mm 3 m/S 739 mmHg 55%
11:00 +28°C° 0 mm 3 m/S 740 mmHg 50%
12:00 +29°C° 0 mm 3 m/S 740 mmHg 46%
13:00 +30°C° 0 mm 3 m/S 740 mmHg 42%
14:00 +30°C° 0 mm 4 m/S 739 mmHg 41%
15:00 +30°C° 0 mm 4 m/S 739 mmHg 40%
16:00 +30°C° 0 mm 4 m/S 739 mmHg 39%
17:00 +29°C° 0 mm 4 m/S 739 mmHg 43%
18:00 +28°C° 0 mm 4 m/S 739 mmHg 46%
19:00 +27°C° 0 mm 3 m/S 739 mmHg 49%
20:00 +25°C° 0 mm 3 m/S 739 mmHg 53%
21:00 +22°C° 0 mm 3 m/S 739 mmHg 57%
22:00 +20°C° 0 mm 2 m/S 739 mmHg 61%
23:00 +20°C° 0 mm 2 m/S 739 mmHg 65%

Morgen, 25 Juni, Freitag

Zeit Temperatur Niederschläge Wind Luftdruck Luftfeuchtigkeit
00:00 +19°C° 0 mm 2 m/S 738 mmHg 69%
01:00 +20°C° 0 mm 1 m/S 738 mmHg 73%
02:00 +19°C° 0 mm 1 m/S 738 mmHg 75%
03:00 +19°C° 0 mm 1 m/S 738 mmHg 78%
04:00 +18°C° 0 mm 1 m/S 738 mmHg 80%
05:00 +20°C° 0 mm 1 m/S 738 mmHg 75%
06:00 +20°C° 0 mm 2 m/S 738 mmHg 70%
07:00 +23°C° 0 mm 2 m/S 738 mmHg 65%
08:00 +25°C° 0 mm 2 m/S 738 mmHg 58%
09:00 +26°C° 0 mm 2 m/S 738 mmHg 51%
10:00 +28°C° 0 mm 3 m/S 738 mmHg 44%
11:00 +29°C° 0 mm 3 m/S 738 mmHg 42%
12:00 +30°C° 0 mm 3 m/S 738 mmHg 40%
13:00 +31°C° 0 mm 3 m/S 738 mmHg 38%
14:00 +31°C° 0 mm 3 m/S 738 mmHg 38%
15:00 +33°C° 0 mm 4 m/S 737 mmHg 39%
16:00 +33°C° 0 mm 4 m/S 737 mmHg 40%
17:00 +31°C° 0 mm 3 m/S 737 mmHg 45%
18:00 +30°C° 0 mm 3 m/S 736 mmHg 51%
19:00 +29°C° 0 mm 2 m/S 736 mmHg 56%
20:00 +27°C° 1 mm 2 m/S 736 mmHg 66%
21:00 +24°C° 1 mm 2 m/S 736 mmHg 76%
22:00 +20°C° 1 mm 2 m/S 735 mmHg 86%
23:00 +20°C° 0 mm 2 m/S 735 mmHg 85%

übermorgen, 26 Juni, Samstag

Zeit Temperatur Niederschläge Wind Luftdruck Luftfeuchtigkeit
00:00 +20°C° 0 mm 2 m/S 735 mmHg 83%
01:00 +19°C° 0 mm 2 m/S 736 mmHg 82%
02:00 +19°C° 0 mm 2 m/S 735 mmHg 81%
03:00 +19°C° 0 mm 2 m/S 735 mmHg 81%
04:00 +19°C° 0 mm 2 m/S 735 mmHg 80%
05:00 +20°C° 0 mm 2 m/S 735 mmHg 76%
06:00 +23°C° 0 mm 2 m/S 735 mmHg 72%
07:00 +24°C° 0 mm 2 m/S 735 mmHg 69%
08:00 +26°C° 0 mm 2 m/S 735 mmHg 63%
09:00 +28°C° 0 mm 2 m/S 735 mmHg 57%
10:00 +29°C° 0 mm 3 m/S 735 mmHg 51%
11:00 +30°C° 0 mm 3 m/S 735 mmHg 49%
12:00 +33°C° 0 mm 3 m/S 735 mmHg 46%
13:00 +34°C° 0 mm 3 m/S 735 mmHg 43%
14:00 +34°C° 0 mm 4 m/S 735 mmHg 42%
15:00 +34°C° 0 mm 4 m/S 735 mmHg 40%
16:00 +34°C° 0 mm 5 m/S 735 mmHg 39%
17:00 +33°C° 0 mm 5 m/S 735 mmHg 43%
18:00 +32°C° 0 mm 4 m/S 734 mmHg 48%
19:00 +30°C° 0 mm 4 m/S 734 mmHg 52%
20:00 +28°C° 0.1 mm 4 m/S 734 mmHg 59%
21:00 +26°C° 0.1 mm 3 m/S 735 mmHg 65%
22:00 +25°C° 0.1 mm 2 m/S 735 mmHg 72%
23:00 +24°C° 0.2 mm 2 m/S 735 mmHg 75%

27 Juni, Sonntag

Zeit Temperatur Niederschläge Wind Luftdruck Luftfeuchtigkeit
00:00 +24°C° 0.2 mm 1 m/S 735 mmHg 78%
01:00 +23°C° 0.2 mm 1 m/S 735 mmHg 81%
02:00 +23°C° 0.5 mm 1 m/S 735 mmHg 83%
03:00 +22°C° 0.5 mm 1 m/S 735 mmHg 85%
04:00 +21°C° 0.5 mm 2 m/S 734 mmHg 86%
05:00 +23°C° 0 mm 2 m/S 735 mmHg 82%
06:00 +25°C° 0 mm 2 m/S 735 mmHg 78%
07:00 +26°C° 0 mm 2 m/S 735 mmHg 73%
08:00 +28°C° 0 mm 3 m/S 735 mmHg 66%
09:00 +29°C° 0 mm 3 m/S 735 mmHg 59%
10:00 +30°C° 0 mm 4 m/S 735 mmHg 51%
11:00 +32°C° 0 mm 4 m/S 735 mmHg 48%
12:00 +33°C° 0 mm 4 m/S 735 mmHg 45%
13:00 +34°C° 0 mm 5 m/S 735 mmHg 42%
14:00 +33°C° 0 mm 5 m/S 735 mmHg 45%
15:00 +32°C° 0 mm 5 m/S 735 mmHg 48%
16:00 +32°C° 0 mm 4 m/S 735 mmHg 52%
17:00 +30°C° 0 mm 4 m/S 735 mmHg 54%
18:00 +29°C° 0 mm 4 m/S 735 mmHg 56%
19:00 +29°C° 0 mm 4 m/S 735 mmHg 59%
20:00 +28°C° 0 mm 3 m/S 735 mmHg 65%
21:00 +26°C° 0 mm 3 m/S 735 mmHg 71%
22:00 +25°C° 0 mm 2 m/S 735 mmHg 77%
23:00 +24°C° 0 mm 2 m/S 735 mmHg 79%

28 Juni, Montag

Zeit Temperatur Niederschläge Wind Luftdruck Luftfeuchtigkeit
00:00 +23°C° 0 mm 2 m/S 735 mmHg 82%
01:00 +23°C° 0 mm 2 m/S 735 mmHg 85%
02:00 +21°C° 0 mm 2 m/S 735 mmHg 86%
03:00 +21°C° 0 mm 2 m/S 735 mmHg 87%
04:00 +21°C° 0 mm 2 m/S 735 mmHg 87%
05:00 +22°C° 0 mm 3 m/S 735 mmHg 80%
06:00 +23°C° 0 mm 4 m/S 736 mmHg 73%
07:00 +25°C° 0 mm 5 m/S 736 mmHg 66%
08:00 +26°C° 0 mm 5 m/S 736 mmHg 60%
09:00 +28°C° 0 mm 5 m/S 736 mmHg 54%
10:00 +29°C° 0 mm 5 m/S 736 mmHg 48%
11:00 +30°C° 0 mm 4 m/S 736 mmHg 44%
12:00 +32°C° 0 mm 4 m/S 736 mmHg 41%
13:00 +32°C° 0 mm 4 m/S 736 mmHg 38%
14:00 +33°C° 0 mm 3 m/S 736 mmHg 37%
15:00 +33°C° 0 mm 3 m/S 736 mmHg 36%
16:00 +33°C° 0 mm 3 m/S 736 mmHg 35%
17:00 +31°C° 0 mm 3 m/S 736 mmHg 40%
18:00 +30°C° 0 mm 3 m/S 736 mmHg 44%
19:00 +30°C° 0 mm 3 m/S 735 mmHg 49%
20:00 +28°C° 0 mm 3 m/S 735 mmHg 54%
21:00 +27°C° 0 mm 3 m/S 736 mmHg 59%
22:00 +25°C° 0 mm 3 m/S 736 mmHg 65%
23:00 +25°C° 0 mm 3 m/S 736 mmHg 64%

29 Juni, Dienstag

Zeit Temperatur Niederschläge Wind Luftdruck Luftfeuchtigkeit
00:00 +24°C° 0 mm 3 m/S 736 mmHg 64%
01:00 +24°C° 0 mm 3 m/S 736 mmHg 63%
02:00 +22°C° 0 mm 3 m/S 736 mmHg 61%
03:00 +22°C° 0 mm 3 m/S 736 mmHg 59%
04:00 +21°C° 0 mm 4 m/S 736 mmHg 58%
05:00 +22°C° 0 mm 4 m/S 736 mmHg 58%
06:00 +22°C° 0 mm 4 m/S 737 mmHg 59%
07:00 +22°C° 0 mm 5 m/S 737 mmHg 59%
08:00 +23°C° 0 mm 5 m/S 737 mmHg 57%
09:00 +25°C° 0 mm 5 m/S 737 mmHg 55%
10:00 +26°C° 0 mm 5 m/S 737 mmHg 53%
11:00 +27°C° 0 mm 5 m/S 737 mmHg 51%
12:00 +28°C° 0 mm 4 m/S 737 mmHg 48%
13:00 +29°C° 0 mm 4 m/S 737 mmHg 46%
14:00 +30°C° 0 mm 4 m/S 737 mmHg 42%
15:00 +32°C° 0 mm 4 m/S 737 mmHg 38%
16:00 +33°C° 0 mm 4 m/S 737 mmHg 35%
17:00 +32°C° 0 mm 4 m/S 737 mmHg 38%
18:00 +30°C° 0 mm 4 m/S 737 mmHg 42%
19:00 +29°C° 0 mm 3 m/S 736 mmHg 45%
20:00 +28°C° 0 mm 3 m/S 736 mmHg 47%
21:00 +26°C° 0 mm 3 m/S 736 mmHg 48%
22:00 +23°C° 0 mm 4 m/S 736 mmHg 50%
23:00 +23°C° 0 mm 4 m/S 736 mmHg 50%
Mehr zeigen

Wir brauchen deine Erlaubnis

Meteoprog und unser Service Anbieter werden persönliche Daten aufbewahren, so wie Cookies, Geräte Bezeichnung oder ähnliche Technologien von deinem Gerät und Prozess, so wie Persönliche Daten Inhalte und Werbungen, genauso wie social Media und den Verkehr zu analysieren.

  • Aufbewahrung und/oder Zugang zu deiner Geräte Informationen.

    Cookies, Geräte Bezeichnung oder andere Informationen, können aufbewahrt oder Zugang zu deinem Gerät erhalten, für den Grund, der oben angegeben wird.

  • Personalisierte Werbung und Inhalte, Messungen, Einblick in das Publikum und Produkt Entwicklung.

    Werbungen und Inhalte können personalisiert werden, basierend auf ein Profil. Mehr Daten können besser personalisierte Werbungen und Inhalte hinzufügen. Werbung und Inhalte können gezeigt und gemessen werden. Einblicke über das Publikum, welche die Werbung gesehen haben und den Inhalt, können abgeleitet werden. So wie Daten können genutzt werden, um es zu verbessern oder die Benutzer Erfahrung zu verbessern das System und die Software.

Wenn du “Ich stimme zu” klickst, erlaubst du uns, die Cookies zu benutzen die Geräte Bezeichnung, den Web oder ähnliche Technologien zu benutzen. Deine Settings, können in deinem Gerät bei deinem Browser geändert werden.

Für den bestimmten Zweck, berechtigten Interessen beruhen darauf, mehr als auf den Inhalt. Du kannst mehr darüber in unseren Privaten und Cookie Politik lesen.